FW6859 Weather Reports


time (UTC)temp
F
wind
direction
speed
knots
gust
knots
rain 1hr
in
rain 24hr
in
rain mn
in
humidity
%
barometer
mb
20260904131004 58 279 0.9 1.7 0.00 0.00 0.00 82 1011.8
20260904130503 58 268 0.9 1.7 0.00 0.00 0.00 82 1011.7
20260904125503 58 270 0.9 1.7 0.00 0.00 0.00 81 1011.7
20260904125004 58 260 0.9 0.9 0.00 0.00 0.00 81 1011.6
20260904124004 59 273 0.9 1.7 0.00 0.00 0.00 81 1011.5
20260904123504 59 287 0.9 1.7 0.00 0.00 0.00 80 1011.5
20260904122503 60 147 0.9 0.9 0.00 0.00 0.00 79 1011.5
20260904122004 60 156 0.9 0.9 0.00 0.00 0.00 79 1011.4
20260904121503 60 350 0.9 1.7 0.00 0.00 0.00 78 1011.4
20260904121003 60 275 0.9 1.7 0.00 0.00 0.00 79 1011.4
20260904120503 60 298 1.7 2.6 0.00 0.00 0.00 78 1011.4
20260904120004 60 236 0.9 1.7 0.00 0.00 0.00 77 1011.4
20260904115503 60 237 0.9 2.6 0.00 0.00 0.00 77 1011.4
20260904115003 61 219 1.7 2.6 0.00 0.00 0.00 77 1011.4
20260904114504 61 257 0.9 1.7 0.00 0.00 0.00 77 1011.3
20260904113504 61 207 1.7 2.6 0.00 0.00 0.00 76 1011.3
20260904113004 62 208 1.7 4.3 0.00 0.00 0.00 75 1011.3
20260904112503 62 263 0.9 1.7 0.00 0.00 0.00 74 1011.3
20260904112004 62 240 1.7 2.6 0.00 0.00 0.00 74 1011.3
20260904111504 62 225 0.9 2.6 0.00 0.00 0.00 74 1011.3
20260904110504 63 225 1.7 2.6 0.00 0.00 0.00 73 1011.2
20260904110003 63 200 1.7 4.3 0.00 0.00 0.00 73 1011.1
20260904105503 63 174 2.6 5.2 0.00 0.00 0.00 72 1011.1
20260904105003 63 207 2.6 6.1 0.00 0.00 0.00 72 1011.1
20260904104504 64 181 2.6 6.1 0.00 0.00 0.00 72 1011.0
20260904103504 64 218 1.7 5.2 0.00 0.00 0.00 71 1010.9
20260904102504 64 208 2.6 6.1 0.00 0.00 0.00 71 1010.8
20260904101503 64 220 2.6 5.2 0.00 0.00 0.00 72 1010.7
20260904101003 64 229 4.3 6.1 0.00 0.00 0.00 72 1010.8
20260904100503 64 213 2.6 4.3 0.00 0.00 0.00 72 1010.8
20260904100004 64 234 1.7 4.3 0.00 0.00 0.00 73 1010.7
20260904095503 64 227 1.7 5.2 0.00 0.00 0.00 73 1010.8
20260904095003 64 204 0.9 2.6 0.00 0.00 0.00 74 1010.8
20260904094504 64 158 2.6 4.3 0.00 0.00 0.00 74 1010.7
20260904094004 64 206 1.7 4.3 0.00 0.00 0.00 75 1010.8
20260904093004 63 167 1.7 4.3 0.00 0.00 0.00 79 1010.8
20260904092503 63 202 1.7 4.3 0.00 0.00 0.00 80 1010.8
20260904092004 63 137 1.7 2.6 0.00 0.00 0.00 80 1010.8
20260904091004 63 111 1.7 1.7 0.00 0.00 0.00 80 1010.8
20260904090504 63 105 0.9 1.7 0.00 0.00 0.00 81 1010.8
20260904090004 63 195 0.9 2.6 0.00 0.00 0.00 81 1010.9
20260904085504 63 122 1.7 4.3 0.00 0.00 0.00 81 1010.8
20260904085003 63 108 1.7 4.3 0.00 0.00 0.00 81 1010.8
20260904084503 63 128 2.6 4.3 0.00 0.00 0.00 81 1010.8
20260904084003 64 138 2.6 4.3 0.00 0.00 0.00 81 1010.9
20260904083503 64 175 1.7 5.2 0.00 0.00 0.00 81 1010.9
20260904083004 64 171 1.7 5.2 0.00 0.00 0.00 81 1010.9
20260904082504 64 178 3.5 7.8 0.00 0.00 0.00 81 1011.0
20260904082004 64 142 3.5 7.8 0.00 0.00 0.00 81 1011.0
20260904081504 64 166 2.6 5.2 0.00 0.00 0.00 81 1011.1
20260904080504 64 138 2.6 7.0 0.00 0.00 0.00 82 1010.9
20260904075004 64 141 2.6 7.0 0.00 0.00 0.00 82 1010.9
20260904074004 63 122 3.5 6.1 0.00 0.00 0.00 83 1010.9
20260904073004 64 157 3.5 6.1 0.00 0.00 0.00 83 1010.9
20260904071003 64 151 2.6 5.2 0.00 0.00 0.00 82 1010.8
20260904070003 64 154 1.7 5.2 0.00 0.00 0.00 82 1010.9
20260904065503 64 170 2.6 4.3 0.00 0.00 0.00 81 1010.9
20260904065004 64 157 1.7 4.3 0.00 0.00 0.00 81 1011.0
20260904064504 65 137 2.6 5.2 0.00 0.00 0.00 80 1011.0
20260904064004 65 163 1.7 4.3 0.00 0.00 0.00 79 1011.0
20260904063504 65 140 3.5 6.1 0.00 0.00 0.00 79 1011.1
20260904063004 65 85 2.6 5.2 0.00 0.00 0.00 78 1011.1
20260904062503 65 101 2.6 4.3 0.00 0.00 0.00 77 1011.0
20260904062004 65 95 2.6 6.1 0.00 0.00 0.00 76 1011.0
20260904061504 65 99 1.7 2.6 0.00 0.00 0.00 75 1010.9
20260904061004 66 92 1.7 4.3 0.00 0.00 0.00 75 1010.8
20260904060503 66 84 1.7 4.3 0.00 0.00 0.00 74 1010.7
20260904060004 66 117 2.6 6.1 0.00 0.00 0.00 72 1010.7
20260904055503 66 106 1.7 4.3 0.00 0.00 0.00 70 1010.7
20260904055003 66 158 2.6 5.2 0.00 0.00 0.00 70 1010.7
20260904054504 66 128 2.6 5.2 0.00 0.00 0.00 70 1010.8
20260904054004 66 122 2.6 5.2 0.00 0.00 0.00 69 1010.8
20260904053503 66 173 1.7 4.3 0.00 0.00 0.00 69 1010.8
20260904053003 66 170 1.7 4.3 0.00 0.00 0.00 69 1010.9
20260904052503 66 194 2.6 5.2 0.00 0.00 0.00 69 1010.9
20260904052004 66 188 1.7 5.2 0.00 0.00 0.00 69 1011.0
20260904051504 66 183 2.6 4.3 0.00 0.00 0.00 69 1011.1
20260904051003 66 178 1.7 5.2 0.00 0.00 0.00 70 1011.1
20260904050503 66 203 2.6 5.2 0.00 0.00 0.00 70 1011.2
20260904045503 66 183 1.7 4.3 0.00 0.00 0.00 71 1011.2
20260904045004 66 201 1.7 4.3 0.00 0.00 0.00 70 1011.2
20260904043504 67 244 1.7 7.0 0.00 0.00 0.00 70 1011.3
20260904043004 67 241 1.7 4.3 0.00 0.00 0.00 70 1011.2
20260904042504 67 197 2.6 6.1 0.00 0.00 0.00 70 1011.1
20260904042004 67 192 3.5 6.1 0.00 0.00 0.00 70 1011.0
20260904041503 67 191 2.6 6.1 0.00 0.00 0.00 69 1011.0
20260904041003 67 194 1.7 6.1 0.00 0.00 0.00 69 1011.0
20260904035504 67 163 2.6 5.2 0.00 0.00 0.00 69 1011.0
20260904035004 67 224 2.6 5.2 0.00 0.00 0.00 70 1011.0
20260904034504 67 179 1.7 5.2 0.00 0.00 0.00 70 1010.9
20260904033504 67 201 1.7 4.3 0.00 0.00 0.00 70 1010.8
20260904033004 67 199 2.6 4.3 0.00 0.00 0.00 69 1010.7
20260904032503 67 144 0.9 2.6 0.00 0.00 0.00 69 1010.7
20260904032004 67 175 1.7 2.6 0.00 0.00 0.00 69 1010.6
20260904031504 67 153 2.6 5.2 0.00 0.00 0.00 69 1010.5
20260904031003 67 188 1.7 4.3 0.00 0.00 0.00 69 1010.5
20260904030503 67 161 2.6 5.2 0.00 0.00 0.00 69 1010.4
20260904030003 67 147 2.6 5.2 0.00 0.00 0.00 68 1010.4
20260904025503 67 123 1.7 5.2 0.00 0.00 0.00 68 1010.4
20260904025005 67 154 2.6 5.2 0.00 0.00 0.00 69 1010.5
20260904024004 67 172 1.7 2.6 0.00 0.00 0.00 68 1010.7
20260904023504 67 168 0.9 2.6 0.00 0.00 0.00 69 1010.8
20260904023004 67 197 0.9 2.6 0.00 0.00 0.00 68 1010.8
20260904022504 67 197 1.7 2.6 0.00 0.00 0.00 68 1010.9
20260904022003 67 304 0.9 2.6 0.00 0.00 0.00 67 1010.9
20260904021504 67 219 2.6 5.2 0.00 0.00 0.00 67 1011.0
20260904021003 67 241 2.6 6.1 0.00 0.00 0.00 67 1011.1
20260904020503 68 221 3.5 6.1 0.00 0.00 0.00 65 1011.0
20260904015004 68 230 3.5 7.0 0.00 0.00 0.00 63 1011.0
20260904014503 69 234 3.5 6.1 0.00 0.00 0.00 63 1011.0
20260904014004 69 221 5.2 8.7 0.00 0.00 0.00 62 1010.9
20260904013504 69 243 2.6 6.1 0.00 0.00 0.00 62 1010.9
20260904013004 69 240 4.3 7.8 0.00 0.00 0.00 62 1010.9
20260904012504 69 239 1.7 7.8 0.00 0.00 0.00 62 1011.0
20260904012004 69 250 4.3 8.7 0.00 0.00 0.00 63 1011.0
20260904011504 69 240 2.6 7.8 0.00 0.00 0.00 64 1011.0
20260904011003 69 266 2.6 7.8 0.00 0.00 0.00 64 1011.1
20260904010504 69 203 4.3 5.2 0.00 0.00 0.00 66 1011.1
20260904010004 69 250 4.3 10.4 0.00 0.00 0.00 65 1011.2
20260904005504 69 220 4.3 7.8 0.00 0.00 0.00 64 1011.2
20260904005004 69 235 2.6 6.1 0.00 0.00 0.00 65 1011.2
20260904004503 69 215 4.3 7.8 0.00 0.00 0.00 65 1011.2
20260904004004 69 207 5.2 8.7 0.00 0.00 0.00 66 1011.2
20260904003004 70 194 6.1 11.3 0.00 0.00 0.00 64 1011.2
20260904002504 70 204 4.3 7.8 0.00 0.00 0.00 65 1011.3
20260904002003 70 202 2.6 8.7 0.00 0.00 0.00 66 1011.3
20260904001503 71 221 5.2 11.3 0.00 0.00 0.00 66 1011.3
20260904001004 71 224 2.6 7.8 0.00 0.00 0.00 66 1011.3
20260904000503 71 175 2.6 7.8 0.00 0.00 0.00 66 1011.3
20260904000004 71 182 4.3 11.3 0.00 0.00 0.00 66 1011.3
20260903235504 71 179 4.3 7.8 0.00 0.00 0.00 64 1011.3
20260903235003 72 226 3.5 8.7 0.00 0.00 0.00 64 1011.2
20260903234004 72 202 2.6 7.0 0.00 0.00 0.00 63 1011.2
20260903233504 72 236 2.6 8.7 0.00 0.00 0.00 63 1011.2
20260903233004 72 150 3.5 8.7 0.00 0.00 0.00 63 1011.3
20260903232004 72 186 4.3 11.3 0.00 0.00 0.00 62 1011.4
20260903231504 72 191 6.1 11.3 0.00 0.00 0.00 62 1011.4
20260903231004 73 197 5.2 8.7 0.00 0.00 0.00 61 1011.4
20260903230504 73 143 5.2 11.3 0.00 0.00 0.00 62 1011.4
20260903230003 73 194 5.2 12.2 0.00 0.00 0.00 60 1011.5
20260903225504 73 206 2.6 11.3 0.00 0.00 0.00 59 1011.5
20260903225004 73 207 5.2 11.3 0.00 0.00 0.00 60 1011.6
20260903224504 73 199 6.1 11.3 0.00 0.00 0.00 59 1011.6
20260903224004 73 192 4.3 10.4 0.00 0.00 0.00 59 1011.6
20260903223504 73 201 6.1 11.3 0.00 0.00 0.00 58 1011.6
20260903222503 74 178 4.3 7.8 0.00 0.00 0.00 57 1011.7
20260903222003 73 175 3.5 10.4 0.00 0.00 0.00 56 1011.7
20260903221504 73 178 6.1 10.4 0.00 0.00 0.00 57 1011.8
20260903221004 73 166 6.1 12.2 0.00 0.00 0.00 57 1011.8
20260903220504 73 165 7.0 15.6 0.00 0.00 0.00 57 1011.8
20260903220003 73 174 5.2 10.4 0.00 0.00 0.00 57 1011.9
20260903215504 73 166 4.3 7.8 0.00 0.00 0.00 58 1011.9
20260903215004 72 197 4.3 8.7 0.00 0.00 0.00 60 1011.9
20260903214504 72 177 6.1 8.7 0.00 0.00 0.00 62 1011.9
20260903214004 72 155 5.2 10.4 0.00 0.00 0.00 62 1011.9
20260903213504 71 149 4.3 10.4 0.00 0.00 0.00 63 1012.0
20260903213004 71 177 5.2 11.3 0.00 0.00 0.00 63 1012.1
20260903212004 71 186 6.1 11.3 0.00 0.00 0.00 63 1012.1
20260903211503 72 149 5.2 7.8 0.00 0.00 0.00 62 1012.1
20260903211003 71 151 5.2 8.7 0.00 0.00 0.00 63 1012.2
20260903210504 71 182 4.3 8.7 0.00 0.00 0.00 63 1012.2
20260903210003 71 157 2.6 7.8 0.00 0.00 0.00 63 1012.3
20260903205503 71 184 5.2 8.7 0.00 0.00 0.00 63 1012.5
20260903205004 71 164 4.3 10.4 0.00 0.00 0.00 63 1012.5
20260903203504 71 93 4.3 7.8 0.00 0.00 0.00 63 1012.6
20260903203004 71 177 4.3 7.8 0.00 0.00 0.00 63 1012.6
20260903202504 71 168 3.5 12.2 0.00 0.00 0.00 64 1012.6
20260903201503 71 153 5.2 10.4 0.00 0.00 0.00 64 1012.7
20260903201003 70 180 4.3 7.8 0.00 0.00 0.00 64 1012.8
20260903200504 70 190 5.2 10.4 0.00 0.00 0.00 65 1012.8
20260903200004 70 161 5.2 10.4 0.00 0.00 0.00 66 1012.9
20260903195503 70 171 5.2 10.4 0.00 0.00 0.00 65 1012.9
20260903195003 70 176 7.0 11.3 0.00 0.00 0.00 65 1013.0
20260903194504 70 195 6.1 12.2 0.00 0.00 0.00 65 1013.0
20260903194004 70 166 7.8 13.9 0.00 0.00 0.00 65 1013.0
20260903193504 70 201 4.3 11.3 0.00 0.00 0.00 65 1013.0
20260903193003 70 169 6.1 11.3 0.00 0.00 0.00 66 1013.2
20260903192004 69 170 6.1 12.2 0.00 0.00 0.00 66 1013.3
20260903191503 69 166 5.2 14.8 0.00 0.00 0.00 67 1013.4
20260903191005 69 161 5.2 12.2 0.00 0.00 0.00 67 1013.4
20260903190504 69 176 7.8 13.9 0.00 0.00 0.00 67 1013.5
20260903190004 69 172 5.2 10.4 0.00 0.00 0.00 66 1013.5
20260903185004 69 153 4.3 8.7 0.00 0.00 0.00 67 1013.6
20260903184504 69 140 4.3 8.7 0.00 0.00 0.00 67 1013.7
20260903184004 69 204 4.3 7.8 0.00 0.00 0.00 67 1013.8
20260903183504 69 135 4.3 10.4 0.00 0.00 0.00 69 1013.7
20260903183004 69 182 4.3 11.3 0.00 0.00 0.00 69 1013.7
20260903182503 69 171 5.2 12.2 0.00 0.00 0.00 69 1013.8
20260903181504 69 154 4.3 8.7 0.00 0.00 0.00 68 1013.7
20260903181004 69 184 5.2 12.2 0.00 0.00 0.00 68 1013.7
20260903180504 69 154 6.1 10.4 0.00 0.00 0.00 69 1013.7
20260903180004 69 179 5.2 10.4 0.00 0.00 0.00 68 1013.8
20260903175504 69 174 5.2 10.4 0.00 0.00 0.00 68 1013.7
20260903175004 69 192 4.3 8.7 0.00 0.00 0.00 68 1013.7
20260903174504 69 133 6.1 10.4 0.00 0.00 0.00 69 1013.7
20260903173503 69 150 5.2 8.7 0.00 0.00 0.00 69 1013.6
20260903172504 68 166 3.5 7.8 0.00 0.00 0.00 70 1013.8
20260903172003 68 155 3.5 6.1 0.00 0.00 0.00 71 1013.9
20260903171004 67 186 4.3 8.7 0.00 0.00 0.00 73 1013.8
20260903170004 67 178 2.6 7.8 0.00 0.00 0.00 73 1013.8
20260903165504 67 192 4.3 7.8 0.00 0.00 0.00 73 1013.9
20260903165004 67 197 1.7 8.7 0.00 0.00 0.00 74 1013.9
20260903164503 66 176 4.3 7.8 0.00 0.00 0.00 75 1014.0
20260903163004 66 168 3.5 7.0 0.00 0.00 0.00 75 1014.1
20260903162504 65 148 3.5 7.8 0.00 0.00 0.00 76 1014.0
20260903161504 65 143 2.6 6.1 0.00 0.00 0.00 76 1014.1
20260903161004 65 162 3.5 7.0 0.00 0.00 0.00 77 1014.1
20260903160004 64 162 1.7 5.2 0.00 0.00 0.00 79 1014.3
20260903155503 63 144 1.7 4.3 0.00 0.00 0.00 81 1014.4
20260903154504 63 134 2.6 5.2 0.00 0.00 0.00 81 1014.4
20260903154004 63 144 2.6 7.0 0.00 0.00 0.00 80 1014.4
20260903153504 63 105 2.6 7.0 0.00 0.00 0.00 79 1014.4
20260903152504 63 152 2.6 5.2 0.00 0.00 0.00 80 1014.4
20260903151504 64 143 2.6 6.1 0.00 0.00 0.00 77 1014.4
20260903151004 64 192 2.6 6.1 0.00 0.00 0.00 76 1014.3
20260903150504 64 150 2.6 6.1 0.00 0.00 0.00 76 1014.3
20260903145505 64 147 4.3 7.0 0.00 0.00 0.00 75 1014.3
20260903145004 63 138 2.6 7.0 0.00 0.00 0.00 76 1014.3
20260903144503 63 131 3.5 7.8 0.00 0.00 0.00 76 1014.1
20260903143504 63 178 2.6 7.0 0.00 0.00 0.00 76 1014.2
20260903143004 63 143 1.7 4.3 0.00 0.00 0.00 76 1014.2
20260903142504 63 163 4.3 7.0 0.00 0.00 0.00 76 1014.2
20260903142004 63 137 2.6 7.0 0.00 0.00 0.00 76 1014.2
20260903141504 63 159 2.6 7.0 0.00 0.00 0.00 75 1014.1
20260903141004 63 152 1.7 7.0 0.00 0.00 0.00 74 1014.1
20260903140504 63 140 2.6 7.8 0.00 0.00 0.00 73 1013.9
20260903140003 63 126 1.7 5.2 0.00 0.00 0.00 72 1013.9
20260903135504 63 120 2.6 5.2 0.00 0.00 0.00 72 1013.8
20260903135004 63 132 2.6 5.2 0.00 0.00 0.00 71 1013.8
20260903134504 64 140 2.6 7.0 0.00 0.00 0.00 70 1013.7
20260903133004 64 161 4.3 7.8 0.00 0.00 0.00 68 1013.7
20260903132504 64 190 3.5 8.7 0.00 0.00 0.00 68 1013.6
20260903132004 64 223 2.6 7.8 0.00 0.00 0.00 68 1013.6